Погода в Новоалександровске

Россия / Ставропольский край     45°29′35″N   41°12′55″E
темп.,
°C
ветер,
м/с
пор.,
м/с
влажн.,
%
обл.,
%
осадки,
мм/ч
давл.,
гПа
погр.,
м
23 января, сб
сб2300:00−1ю23690 0.0 102822
03:00−1ю33660 0.0 102722
06:00−1ю346639 0.0 102738
09:00−1ююв336840 0.0 102733
12:00+3ююв33850 0.0 102680
15:00+3юв238113 0.0 102526
18:00+1юв236878 0.0 102522
21:00+1ююв336559 0.0 102525
24 января, вс
вс2400:000юв336743 0.0 102423
03:000юв337021 0.0 102325
06:000юв23670 0.0 102324
09:00+1в33670 0.0 102340
12:00+3в367921 0.0 1021158
15:00+3в367567 0.0 101993
18:00+1в5988100 0.0 1020164
21:000в3486100 0.0 101978
25 января, пн
пн2500:00+1вюв2374100 0.0 101936
03:00+1ююз1267100 0.0 101922
06:00+2ююв1269100 0.0 102022
09:00+2юв2368100 0.0 102025
12:00+5вюв236959 0.0 101980
15:00+5в367214 0.0 1017138
18:00+2в587737 0.0 1018130
21:00+1вюв347555 0.0 101758
26 января, вт
вт2600:00+2юв4568100 0.0 101671
03:00+2ююв2270100 0.0 101722
06:00+3ююв4470100 0.0 101753
09:00+3ююв3469100 0.0 101866
12:00+7юв4965100 0.0 1017225
15:00+7вюв3670100 0.0 1015126
18:00+5юв3470100 0.0 101657
21:00+5вюв3469100 0.0 101542
27 января, ср
ср2700:00+3вюв346582 0.0 101434
03:00+3юв226491 0.0 101222
06:00+2в5868100 0.0 1013129
09:00+4в2391100 0.0 101648
12:00+6в5868100 0.0 1007231
15:00+6в71269100 0.0 1008415
18:00+5всв3377100 0.0 100754
21:00+3всв4889100 0.0 1010321